Home   Weather   Joensuu   Past weeks

Flag for Finland Past Weather in Joensuu, Finland — Yesterday and Last 2 Weeks

Now
21 °F

Low clouds.


Feels Like: 12 °F
Forecast: 24 / 30 °F
Wind: 8 mph from South

Location: Joensuu Airport

Current Time: Jan 17, 2017 at 9:37:05 pm

Latest Report: Jan 17, 2017 at 8:50 pm


Visibility: N/A

Pressure: 30.21 "Hg

Humidity: 93%

Dew Point: 19 °F

Location of JoensuuLocation

Past Weather in Joensuu — Graph

°F

Joensuu Temperature Yesterday

Maximum temperature yesterday: 18 °F (at 12:20 am)
Minimum temperature yesterday: 14 °F (at 5:20 am)
Average temperature yesterday: 15 °F

High & Low Weather Summary for the Past Weeks

 TemperatureHumidityPressure
High34 °F (Jan 10, 1:50 pm)100% (Jan 7, 9:20 pm)30.60 "Hg (Jan 7, 9:20 pm)
Low-18 °F (Jan 6, 9:50 am)73% (Jan 12, 4:20 am)29.15 "Hg (Jan 13, 1:20 pm)
Average16 °F88%29.82 "Hg
* Reported Jan 2 8:20 pm — Jan 17 8:20 pm, Joensuu, Weather by CustomWeather, © 2017

Note: Actual official high and low records may vary slightly from our data, if they occured in-between our weather recording intervals... More about our weather records

Advertising

Joensuu Weather History for the Previous 24 Hours

Scroll right to see more
 ConditionsComfort  
Time TempWeatherWind HumidityBarometerVisibility
8:20 pm
Tue, Jan 17
21 °FLow clouds.12 mph93%30.21 "HgN/A
7:50 pm21 °FLow clouds.10 mph100%30.24 "HgN/A
7:20 pm21 °FLow clouds.9 mph100%30.24 "HgN/A
6:50 pm21 °FLow clouds.8 mph100%30.24 "HgN/A
6:20 pm21 °FLow clouds.8 mph93%30.24 "HgN/A
5:50 pm21 °FLow clouds.6 mph93%30.27 "HgN/A
5:20 pm19 °FLow clouds.7 mph100%30.27 "HgN/A
4:50 pm19 °FLow clouds.5 mph93%30.27 "HgN/A
4:20 pm19 °FSnow flurries. Low clouds.5 mph93%30.30 "HgN/A
3:50 pm18 °FSnow flurries. Low clouds.6 mph100%30.30 "HgN/A
3:20 pm18 °FLight snow. Low clouds.6 mph100%30.30 "HgN/A
2:50 pm18 °FLight snow. Low clouds.7 mph93%30.30 "Hg6 mi
2:20 pm18 °FLight snow. Low clouds.5 mph93%30.30 "HgN/A
1:50 pm18 °FLight snow. Low clouds.6 mph93%30.33 "HgN/A
1:20 pm18 °FLow clouds.6 mph93%30.33 "HgN/A
12:50 pm16 °FSnow flurries. Low clouds.6 mph100%30.33 "HgN/A
12:20 pm16 °FLight snow. Low clouds.6 mph93%30.33 "HgN/A
11:50 am16 °FLow clouds.6 mph93%30.33 "HgN/A
11:20 am16 °FLow clouds.6 mph93%30.33 "HgN/A
10:50 am14 °FLow clouds.6 mph92%30.33 "HgN/A
10:20 am14 °FLow clouds.6 mph92%30.33 "HgN/A
9:50 am14 °FSnow flurries. Mostly cloudy.6 mph92%30.33 "HgN/A
9:20 am14 °FSnow flurries. Mostly cloudy.6 mph92%30.33 "HgN/A
8:50 am14 °FSnow flurries. Mostly cloudy.5 mph92%30.33 "HgN/A
8:20 am14 °FSnow flurries. Mostly cloudy.7 mph92%30.33 "HgN/A
7:50 am14 °FSnow flurries. Mostly cloudy.5 mph92%30.33 "HgN/A
7:20 am14 °FMostly cloudy.6 mph92%30.33 "HgN/A
6:50 am14 °FLow clouds.7 mph92%30.30 "HgN/A
6:20 am14 °FMostly cloudy.7 mph92%30.30 "HgN/A
5:50 am14 °FMostly cloudy.5 mph92%30.30 "HgN/A
5:20 am14 °FSnow flurries. Mostly cloudy.6 mph92%30.30 "HgN/A
4:50 am14 °FLight snow. Mostly cloudy.6 mph92%30.30 "HgN/A
4:20 am14 °FLight snow. Overcast.6 mph92%30.30 "Hg4 mi
3:50 am14 °FLight snow. Overcast.6 mph92%30.30 "Hg5 mi
3:20 am14 °FLight snow. Overcast.5 mph92%30.30 "Hg4 mi
2:50 am14 °FSnow flurries. Mostly cloudy.5 mph92%30.30 "HgN/A
2:20 am14 °FMostly cloudy.6 mph92%30.27 "HgN/A
1:50 am14 °FOvercast.6 mph92%30.27 "HgN/A
1:20 am14 °FSnow flurries. Overcast.5 mph92%30.27 "HgN/A
12:50 am16 °FSnow flurries. Low clouds.6 mph86%30.27 "HgN/A
12:20 am16 °FLight snow. Mostly cloudy.6 mph93%30.24 "HgN/A
11:50 pm
Mon, Jan 16
16 °FLight snow. Mostly cloudy.6 mph93%30.24 "HgN/A
11:20 pm16 °FLight snow. Passing clouds.5 mph86%30.24 "HgN/A
10:50 pm14 °FLight snow. Partly cloudy.5 mph92%30.24 "HgN/A
10:20 pm14 °FLight snow. Mostly cloudy.5 mph92%30.24 "Hg4 mi
9:50 pm14 °FSnow flurries. Overcast.3 mph92%30.21 "HgN/A
9:20 pm14 °FLight snow. Mostly cloudy.5 mph92%30.21 "HgN/A
Weather by CustomWeather, © 2017

See weather overviewHow to use our weather pages